Location: Kaikalui
(16.5250°N, 81.1500°E)
Time: 09:57:02
(UTC+00:00)

SL-16 R/B - Pass Details

Date: 14 April 2026
Orbit: 841 x 845 km, 71.0° (Epoch: 12 May)

Event Time Altitude Azimuth Distance (km) Brightness Sun altitude
Rises 22:01:33 0° 3° (N) 3,395 5.7 -32.7°
Reaches altitude 10° 22:04:29 10° 17° (NNE) 2,460 5.0 -32.1°
Maximum altitude 22:08:56 24° 69° (ENE) 1,688 4.4 -31.1°
Drops below altitude 10° 22:13:22 10° 122° (ESE) 2,456 5.0 -30.1°
Sets 22:16:16 0° 135° (SE) 3,389 5.6 -29.5°
